#timestamp,LO_Frequency,Hit,StdDev 
1644573615.5,286046998.4,N
1644573635.3,286046997.0,N
1644573655.2,286047003.6,N
1644573675.0,286047003.4,N
1644573675.9,286047003.4,N
1644573695.8,286047006.3,N
1644573715.6,286047003.8,N
1644573735.4,286047006.4,N
1644573755.3,286047003.7,N
1644573775.1,286047000.6,N
1644573795.8,286047000.2,N
1644573815.7,286047002.6,N
1644573835.5,286046999.0,N
1644573855.4,286046999.6,N
1644573875.2,286046999.9,N
1644573895.0,286047000.5,N
1644573895.9,286047000.5,N
1644573915.8,286047007.5,N
1644573935.6,286047004.8,N
1644573955.4,286046999.9,N
1644573975.3,286047002.9,N
1644573995.1,286047004.8,N
1644574015.9,286047006.7,N
1644574035.7,286047004.7,N
1644574055.5,286047006.1,N
1644574075.4,286047006.9,N
1644574095.2,286047003.3,N
1644574115.0,286047000.1,N
1644574115.9,286047000.1,N
1644574135.8,286046995.7,N
1644574155.6,286046991.9,N
1644574175.5,286046994.6,N
1644574195.3,286046991.6,N
1644574215.1,286046989.2,N
1644574235.9,286046988.9,N
1644574255.7,286046990.2,N
1644574275.5,286046990.3,N
1644574295.4,286046991.7,N
1644574315.2,286046997.5,N
1644574335.1,286046998.1,N
1644574336.0,286046998.1,N
1644574355.8,286047002.6,N
1644574375.6,286046999.4,N
1644574395.5,286046991.7,N
1644574415.3,286046995.3,N
1644574435.1,286046989.7,N
1644574455.9,286046979.0,Y
1644574475.7,286046976.6,P
1644574495.6,286046972.9,N
1644574515.4,286046977.0,N
1644574535.2,286046972.4,N
1644574555.1,286046975.6,N
1644574556.0,286046975.6,N
1644574575.8,286046976.9,N
1644574595.7,286046972.8,Y
1644574615.5,286046993.0,P
1644574635.3,286046987.4,N
1644574655.2,286046989.7,N
1644574675.9,286046990.6,N
1644574695.7,286046988.5,N
1644574715.6,286046986.2,N
1644574735.4,286046986.4,Y
1644574755.3,286046997.0,P
1644574775.1,286046997.6,N
1644574776.0,286046997.6,N
1644574795.8,286046993.5,N
1644574815.7,286046999.5,N
1644574835.5,286047002.4,N
1644574855.3,286047004.6,N
1644574875.2,286047009.3,N
1644574895.0,286047009.7,N
1644574895.9,286047009.7,N
1644574915.8,286047012.2,N
1644574935.6,286047011.5,N
1644574955.4,286047009.4,N
1644574975.3,286047009.4,N
1644574995.1,286047006.4,N
1644575015.8,286047011.2,N
1644575035.7,286047013.9,N
1644575055.5,286047013.3,N
1644575075.4,286047015.3,N
1644575095.2,286047018.1,N
1644575115.0,286047013.2,N
1644575115.9,286047013.2,N
1644575135.8,286047015.2,N
1644575155.6,286047018.1,N
1644575175.4,286047018.6,N
1644575195.3,286047019.7,N
1644575215.1,286047021.7,N
1644575235.9,286047019.0,N
1644575255.7,286047024.7,N
1644575275.5,286047025.4,N
1644575295.4,286047023.6,N
1644575315.2,286047019.1,N
1644575335.1,286047020.1,N
1644575336.0,286047020.1,N
1644575355.8,286047014.5,N
1644575375.6,286047017.2,N
1644575395.5,286047016.0,Y
1644575415.3,286046995.4,P
1644575435.2,286046995.3,N
1644575455.9,286047002.6,N
1644575475.7,286047008.0,N
1644575495.6,286047012.2,N
1644575515.4,286047011.2,N
1644575535.2,286047010.9,N
1644575555.1,286047009.5,N
1644575556.0,286047009.5,N
1644575575.8,286047009.2,N
1644575595.7,286047012.8,N
1644575615.5,286047017.4,N
1644575635.3,286047014.9,N
1644575655.2,286047016.0,N
1644575675.0,286047011.6,N
1644575675.9,286047011.6,N
1644575695.7,286047008.0,N
1644575715.6,286047006.2,N
1644575735.4,286047012.1,N
1644575755.3,286047020.1,Y
1644575775.1,286047012.4,P
1644575795.8,286047005.3,P
1644575815.7,286047004.2,N
1644575835.5,286047000.4,N
1644575855.3,286046995.3,N
1644575875.2,286047001.2,N
1644575895.0,286047001.3,N
1644575895.9,286047001.3,N
1644575915.8,286046999.5,N
1644575935.6,286046997.6,N
1644575955.4,286046995.7,N
1644575975.3,286046993.4,N
1644575995.1,286046992.3,N
1644576015.9,286046998.9,N
1644576035.7,286047004.1,N
1644576055.5,286047006.1,N
1644576075.4,286047007.3,N
1644576095.2,286047003.5,N
1644576115.0,286047003.5,N
1644576115.9,286047003.5,N
1644576135.8,286047001.6,N
1644576155.6,286047003.7,N
1644576175.5,286047005.1,N
1644576195.3,286047001.3,N
1644576215.1,286047004.2,N
1644576235.9,286047006.0,N
1644576255.7,286046999.8,N
1644576275.5,286047000.3,N
1644576295.4,286047001.2,N
1644576315.2,286046997.7,N
1644576335.1,286046997.9,N
1644576336.0,286046997.9,N
1644576355.8,286046993.5,N
1644576375.6,286046992.4,N
1644576395.5,286046992.5,N
1644576415.3,286046995.4,N
1644576435.1,286047002.0,N
1644576455.9,286047002.6,N
1644576475.7,286046998.3,N
1644576495.6,286046993.9,N
1644576515.4,286046998.7,N
1644576535.2,286046998.8,N
1644576555.1,286046998.4,N
1644576556.0,286046998.4,N
1644576575.8,286046998.6,N
1644576595.6,286046999.6,N
1644576615.5,286046998.9,N
1644576635.3,286047002.8,N
1644576655.2,286047002.9,N
1644576675.9,286047004.6,N
1644576695.7,286047001.4,N
1644576715.6,286047004.7,N
1644576735.4,286047000.0,N
1644576755.3,286046998.4,N
1644576775.1,286046999.6,N
1644576776.0,286046999.6,N
1644576795.8,286047006.6,N
1644576815.7,286047010.8,Y
1644576835.5,286047016.7,P
1644576855.3,286047018.9,N
1644576875.2,286047017.2,N
1644576895.0,286047011.5,N
1644576895.9,286047011.5,N
1644576915.8,286047009.9,N
1644576935.6,286047005.1,N
1644576955.4,286047004.6,N
1644576975.3,286047010.7,N
1644576995.1,286047008.5,N
1644577015.8,286047009.4,N
1644577035.7,286047007.8,N
1644577055.5,286047010.4,N
1644577075.4,286047010.6,N
1644577095.2,286047008.8,N
1644577115.0,286047017.0,Y
1644577115.9,286047017.0,P
1644577135.8,286047009.4,N
1644577155.6,286047014.5,P
1644577175.4,286047007.7,N
1644577195.3,286047007.6,N
